Year,Month,Day,Hour,Minute,Value (Times are PST for temperature in C)
2011,06,16,00,00,11.20
2011,06,16,00,01,11.30
2011,06,16,00,02,11.30
2011,06,16,00,03,11.30
2011,06,16,00,04,11.30
2011,06,16,00,05,11.30
2011,06,16,00,06,11.40
2011,06,16,00,07,11.40
2011,06,16,00,08,11.40
2011,06,16,00,09,11.40
2011,06,16,00,10,11.40
2011,06,16,00,11,11.50
2011,06,16,00,12,11.50
2011,06,16,00,13,11.50
2011,06,16,00,14,11.50
2011,06,16,00,15,11.60
2011,06,16,00,16,11.60
2011,06,16,00,17,11.50
2011,06,16,00,18,11.50
2011,06,16,00,19,11.50
2011,06,16,00,20,11.50
2011,06,16,00,21,11.40
2011,06,16,00,22,11.40
2011,06,16,00,23,11.40
2011,06,16,00,24,11.40
2011,06,16,00,25,11.30
2011,06,16,00,26,11.30
2011,06,16,00,27,11.30
2011,06,16,00,28,11.40
2011,06,16,00,29,11.40
2011,06,16,00,30,11.40
2011,06,16,00,31,11.40
2011,06,16,00,32,11.40
2011,06,16,00,33,11.40
2011,06,16,00,34,11.40
2011,06,16,00,35,11.40
2011,06,16,00,36,11.40
2011,06,16,00,37,11.40
2011,06,16,00,38,11.40
2011,06,16,00,39,11.40
2011,06,16,00,40,11.40
2011,06,16,00,41,11.30
2011,06,16,00,42,11.30
2011,06,16,00,43,11.30
2011,06,16,00,44,11.30
2011,06,16,00,45,11.30
2011,06,16,00,46,11.20
2011,06,16,00,47,11.20
2011,06,16,00,48,11.20
2011,06,16,00,49,11.20
2011,06,16,00,50,11.20
2011,06,16,00,51,11.20
2011,06,16,00,52,11.20
2011,06,16,00,53,11.20
2011,06,16,00,54,11.20
2011,06,16,00,55,11.20
2011,06,16,00,56,11.30
2011,06,16,00,57,11.20
2011,06,16,00,58,11.20
2011,06,16,00,59,11.20
2011,06,16,01,00,11.20
2011,06,16,01,01,11.20
2011,06,16,01,02,11.30
2011,06,16,01,03,11.30
2011,06,16,01,04,11.30
2011,06,16,01,05,11.30
2011,06,16,01,06,11.30
2011,06,16,01,07,11.30
2011,06,16,01,08,11.30
2011,06,16,01,09,11.30
2011,06,16,01,10,11.40
2011,06,16,01,11,11.30
2011,06,16,01,12,11.30
2011,06,16,01,13,11.30
2011,06,16,01,14,11.30
2011,06,16,01,15,11.30
2011,06,16,01,16,11.30
2011,06,16,01,17,11.30
2011,06,16,01,18,11.20
2011,06,16,01,19,11.20
2011,06,16,01,20,11.20
2011,06,16,01,21,11.10
2011,06,16,01,22,11.10
2011,06,16,01,23,11.10
2011,06,16,01,24,11.00
2011,06,16,01,25,11.00
2011,06,16,01,26,10.90
2011,06,16,01,27,10.90
2011,06,16,01,28,10.90
2011,06,16,01,29,10.80
2011,06,16,01,30,10.80
2011,06,16,01,31,10.80
2011,06,16,01,32,10.80
2011,06,16,01,33,10.70
2011,06,16,01,34,10.70
2011,06,16,01,35,10.70
2011,06,16,01,36,10.70
2011,06,16,01,37,10.70
2011,06,16,01,38,10.70
2011,06,16,01,39,10.70
2011,06,16,01,40,10.70
2011,06,16,01,41,10.70
2011,06,16,01,42,10.60
2011,06,16,01,43,10.60
2011,06,16,01,44,10.60
2011,06,16,01,45,10.60
2011,06,16,01,46,10.60
2011,06,16,01,47,10.50
2011,06,16,01,48,10.50
2011,06,16,01,49,10.50
2011,06,16,01,50,10.40
2011,06,16,01,51,10.40
2011,06,16,01,52,10.40
2011,06,16,01,53,10.40
2011,06,16,01,54,10.40
2011,06,16,01,55,10.40
2011,06,16,01,56,10.40
2011,06,16,01,57,10.40
2011,06,16,01,58,10.40
2011,06,16,01,59,10.40
2011,06,16,02,00,10.40
2011,06,16,02,01,10.40
2011,06,16,02,02,10.30
2011,06,16,02,03,10.30
2011,06,16,02,04,10.30
2011,06,16,02,05,10.30
2011,06,16,02,06,10.30
2011,06,16,02,07,10.30
2011,06,16,02,08,10.30
2011,06,16,02,09,10.20
2011,06,16,02,10,10.20
2011,06,16,02,11,10.20
2011,06,16,02,12,10.20
2011,06,16,02,13,10.20
2011,06,16,02,14,10.20
2011,06,16,02,15,10.20
2011,06,16,02,16,10.20
2011,06,16,02,17,10.20
2011,06,16,02,18,10.10
2011,06,16,02,19,10.00
2011,06,16,02,20,9.90
2011,06,16,02,21,9.80
2011,06,16,02,22,9.70
2011,06,16,02,23,9.60
2011,06,16,02,24,9.60
2011,06,16,02,25,9.50
2011,06,16,02,26,9.40
2011,06,16,02,27,9.30
2011,06,16,02,28,9.20
2011,06,16,02,29,9.20
2011,06,16,02,30,9.10
2011,06,16,02,31,9.00
2011,06,16,02,32,9.00
2011,06,16,02,33,9.00
2011,06,16,02,34,9.00
2011,06,16,02,35,9.00
2011,06,16,02,36,9.00
2011,06,16,02,37,9.10
2011,06,16,02,38,9.00
2011,06,16,02,39,9.00
2011,06,16,02,40,9.10
2011,06,16,02,41,9.10
2011,06,16,02,42,9.10
2011,06,16,02,43,9.00
2011,06,16,02,44,9.10
2011,06,16,02,45,9.10
2011,06,16,02,46,9.10
2011,06,16,02,47,9.10
2011,06,16,02,48,9.10
2011,06,16,02,49,9.10
2011,06,16,02,50,9.20
2011,06,16,02,51,9.20
2011,06,16,02,52,9.20
2011,06,16,02,53,9.20
2011,06,16,02,54,9.20
2011,06,16,02,55,9.20
2011,06,16,02,56,9.20
2011,06,16,02,57,9.20
2011,06,16,02,58,9.20
2011,06,16,02,59,9.20
2011,06,16,03,00,9.20
2011,06,16,03,01,9.20
2011,06,16,03,02,9.20
2011,06,16,03,03,9.20
2011,06,16,03,04,9.20
2011,06,16,03,05,9.20
2011,06,16,03,06,9.20
2011,06,16,03,07,9.20
2011,06,16,03,08,9.20
2011,06,16,03,09,9.20
2011,06,16,03,10,9.10
2011,06,16,03,11,9.10
2011,06,16,03,12,9.10
2011,06,16,03,13,9.00
2011,06,16,03,14,9.00
2011,06,16,03,15,8.90
2011,06,16,03,16,8.90
2011,06,16,03,17,8.90
2011,06,16,03,18,8.90
2011,06,16,03,19,8.90
2011,06,16,03,20,8.80
2011,06,16,03,21,8.80
2011,06,16,03,22,8.80
2011,06,16,03,23,8.70
2011,06,16,03,24,8.70
2011,06,16,03,25,8.70
2011,06,16,03,26,8.60
2011,06,16,03,27,8.60
2011,06,16,03,28,8.60
2011,06,16,03,29,8.50
2011,06,16,03,30,8.50
2011,06,16,03,31,8.40
2011,06,16,03,32,8.40
2011,06,16,03,33,8.40
2011,06,16,03,34,8.30
2011,06,16,03,35,8.30
2011,06,16,03,36,8.30
2011,06,16,03,37,8.20
2011,06,16,03,38,8.20
2011,06,16,03,39,8.20
2011,06,16,03,40,8.20
2011,06,16,03,41,8.20
2011,06,16,03,42,8.10
2011,06,16,03,43,8.10
2011,06,16,03,44,8.10
2011,06,16,03,45,8.10
2011,06,16,03,46,8.00
2011,06,16,03,47,8.00
2011,06,16,03,48,7.90
2011,06,16,03,49,7.90
2011,06,16,03,50,7.80
2011,06,16,03,51,7.80
2011,06,16,03,52,7.80
2011,06,16,03,53,7.80
2011,06,16,03,54,7.70
2011,06,16,03,55,7.70
2011,06,16,03,56,7.70
2011,06,16,03,57,7.60
2011,06,16,03,58,7.60
2011,06,16,03,59,7.60
2011,06,16,04,00,7.50
2011,06,16,04,01,7.50
2011,06,16,04,02,7.50
2011,06,16,04,03,7.40
2011,06,16,04,04,7.40
2011,06,16,04,05,7.40
2011,06,16,04,06,7.40
2011,06,16,04,07,7.40
2011,06,16,04,08,7.40
2011,06,16,04,09,7.30
2011,06,16,04,10,7.30
2011,06,16,04,11,7.30
2011,06,16,04,12,7.40
2011,06,16,04,13,7.40
2011,06,16,04,14,7.40
2011,06,16,04,15,7.40
2011,06,16,04,16,7.30
2011,06,16,04,17,7.30
2011,06,16,04,18,7.30
2011,06,16,04,19,7.30
2011,06,16,04,20,7.30
2011,06,16,04,21,7.20
2011,06,16,04,22,7.20
2011,06,16,04,23,7.20
2011,06,16,04,24,7.20
2011,06,16,04,25,7.10
2011,06,16,04,26,7.10
2011,06,16,04,27,7.10
2011,06,16,04,28,7.10
2011,06,16,04,29,7.10
2011,06,16,04,30,7.10
2011,06,16,04,31,7.10
2011,06,16,04,32,7.10
2011,06,16,04,33,7.10
2011,06,16,04,34,7.20
2011,06,16,04,35,7.20
2011,06,16,04,36,7.20
2011,06,16,04,37,7.20
2011,06,16,04,38,7.20
2011,06,16,04,39,7.20
2011,06,16,04,40,7.20
2011,06,16,04,41,7.30
2011,06,16,04,42,7.30
2011,06,16,04,43,7.30
2011,06,16,04,44,7.30
2011,06,16,04,45,7.20
2011,06,16,04,46,7.20
2011,06,16,04,47,7.20
2011,06,16,04,48,7.20
2011,06,16,04,49,7.10
2011,06,16,04,50,7.10
2011,06,16,04,51,7.00
2011,06,16,04,52,7.00
2011,06,16,04,53,7.00
2011,06,16,04,54,6.90
2011,06,16,04,55,6.90
2011,06,16,04,56,6.90
2011,06,16,04,57,6.80
2011,06,16,04,58,6.80
2011,06,16,04,59,6.80
2011,06,16,05,00,6.70
2011,06,16,05,01,6.70
2011,06,16,05,02,6.70
2011,06,16,05,03,6.70
2011,06,16,05,04,6.70
2011,06,16,05,05,6.70
2011,06,16,05,06,6.70
2011,06,16,05,07,6.70
2011,06,16,05,08,6.70
2011,06,16,05,09,6.70
2011,06,16,05,10,6.70
2011,06,16,05,11,6.70
2011,06,16,05,12,6.70
2011,06,16,05,13,6.70
2011,06,16,05,14,6.70
2011,06,16,05,15,6.60
2011,06,16,05,16,6.60
2011,06,16,05,17,6.60
2011,06,16,05,18,6.60
2011,06,16,05,19,6.60
2011,06,16,05,20,6.50
2011,06,16,05,21,6.50
2011,06,16,05,22,6.50
2011,06,16,05,23,6.50
2011,06,16,05,24,6.50
2011,06,16,05,25,6.40
2011,06,16,05,26,6.40
2011,06,16,05,27,6.40
2011,06,16,05,28,6.40
2011,06,16,05,29,6.40
2011,06,16,05,30,6.40
2011,06,16,05,31,6.30
2011,06,16,05,32,6.30
2011,06,16,05,33,6.40
2011,06,16,05,34,6.40
2011,06,16,05,35,6.40
2011,06,16,05,36,6.40
2011,06,16,05,37,6.40
2011,06,16,05,38,6.40
2011,06,16,05,39,6.50
2011,06,16,05,40,6.50
2011,06,16,05,41,6.50
2011,06,16,05,42,6.60
2011,06,16,05,43,6.60
2011,06,16,05,44,6.60
2011,06,16,05,45,6.70
2011,06,16,05,46,6.70
2011,06,16,05,47,6.80
2011,06,16,05,48,6.80
2011,06,16,05,49,6.90
2011,06,16,05,50,6.90
2011,06,16,05,51,6.90
2011,06,16,05,52,7.00
2011,06,16,05,53,7.00
2011,06,16,05,54,7.10
2011,06,16,05,55,7.10
2011,06,16,05,56,7.10
2011,06,16,05,57,7.20
2011,06,16,05,58,7.20
2011,06,16,05,59,7.20
2011,06,16,06,00,7.20
2011,06,16,06,01,7.20
2011,06,16,06,02,7.20
2011,06,16,06,03,7.20
2011,06,16,06,04,7.20
2011,06,16,06,05,7.20
2011,06,16,06,06,7.20
2011,06,16,06,07,7.20
2011,06,16,06,08,7.30
2011,06,16,06,09,7.30
2011,06,16,06,10,7.40
2011,06,16,06,11,7.40
2011,06,16,06,12,7.50
2011,06,16,06,13,7.60
2011,06,16,06,14,7.70
2011,06,16,06,15,7.80
2011,06,16,06,16,7.90
2011,06,16,06,17,8.00
2011,06,16,06,18,8.00
2011,06,16,06,19,8.10
2011,06,16,06,20,8.20
2011,06,16,06,21,8.20
2011,06,16,06,22,8.30
2011,06,16,06,23,8.30
2011,06,16,06,24,8.40
2011,06,16,06,25,8.40
2011,06,16,06,26,8.50
2011,06,16,06,27,8.50
2011,06,16,06,28,8.60
2011,06,16,06,29,8.60
2011,06,16,06,30,8.70
2011,06,16,06,31,8.70
2011,06,16,06,32,8.80
2011,06,16,06,33,8.80
2011,06,16,06,34,8.90
2011,06,16,06,35,8.90
2011,06,16,06,36,9.00
2011,06,16,06,37,9.00
2011,06,16,06,38,9.10
2011,06,16,06,39,9.10
2011,06,16,06,40,9.10
2011,06,16,06,41,9.20
2011,06,16,06,42,9.20
2011,06,16,06,43,9.20
2011,06,16,06,44,9.30
2011,06,16,06,45,9.30
2011,06,16,06,46,9.30
2011,06,16,06,47,9.40
2011,06,16,06,48,9.40
2011,06,16,06,49,9.40
2011,06,16,06,50,9.50
2011,06,16,06,51,9.50
2011,06,16,06,52,9.60
2011,06,16,06,53,9.60
2011,06,16,06,54,9.60
2011,06,16,06,55,9.60
2011,06,16,06,56,9.60
2011,06,16,06,57,9.60
2011,06,16,06,58,9.60
2011,06,16,06,59,9.60
2011,06,16,07,00,9.70
2011,06,16,07,01,9.70
2011,06,16,07,02,9.70
2011,06,16,07,03,9.70
2011,06,16,07,04,9.70
2011,06,16,07,05,9.70
2011,06,16,07,06,9.70
2011,06,16,07,07,9.70
2011,06,16,07,08,9.70
2011,06,16,07,09,9.70
2011,06,16,07,10,9.70
2011,06,16,07,11,9.70
2011,06,16,07,12,9.80
2011,06,16,07,13,9.80
2011,06,16,07,14,9.80
2011,06,16,07,15,9.80
2011,06,16,07,16,9.80
2011,06,16,07,17,9.90
2011,06,16,07,18,9.90
2011,06,16,07,19,9.90
2011,06,16,07,20,10.00
2011,06,16,07,21,10.00
2011,06,16,07,22,10.10
2011,06,16,07,23,10.10
2011,06,16,07,24,10.10
2011,06,16,07,25,10.10
2011,06,16,07,26,10.20
2011,06,16,07,27,10.20
2011,06,16,07,28,10.20
2011,06,16,07,29,10.20
2011,06,16,07,30,10.30
2011,06,16,07,31,10.30
2011,06,16,07,32,10.30
2011,06,16,07,33,10.30
2011,06,16,07,34,10.30
2011,06,16,07,35,10.40
2011,06,16,07,36,10.40
2011,06,16,07,37,10.40
2011,06,16,07,38,10.40
2011,06,16,07,39,10.40
2011,06,16,07,40,10.40
2011,06,16,07,41,10.40
2011,06,16,07,42,10.40
2011,06,16,07,43,10.40
2011,06,16,07,44,10.40
2011,06,16,07,45,10.40
2011,06,16,07,46,10.40
2011,06,16,07,47,10.50
2011,06,16,07,48,10.50
2011,06,16,07,49,10.50
2011,06,16,07,50,10.50
2011,06,16,07,51,10.50
2011,06,16,07,52,10.50
2011,06,16,07,53,10.60
2011,06,16,07,54,10.60
2011,06,16,07,55,10.60
2011,06,16,07,56,10.70
2011,06,16,07,57,10.70
2011,06,16,07,58,10.70
2011,06,16,07,59,10.80
2011,06,16,08,00,10.80
2011,06,16,08,01,10.80
2011,06,16,08,02,10.80
2011,06,16,08,03,10.90
2011,06,16,08,04,10.90
2011,06,16,08,05,10.90
2011,06,16,08,06,11.00
2011,06,16,08,07,10.90
2011,06,16,08,08,10.90
2011,06,16,08,09,10.90
2011,06,16,08,10,10.90
2011,06,16,08,11,10.90
2011,06,16,08,12,11.00
2011,06,16,08,13,11.00
2011,06,16,08,14,11.00
2011,06,16,08,15,11.10
2011,06,16,08,16,11.20
2011,06,16,08,17,11.30
2011,06,16,08,18,11.30
2011,06,16,08,19,11.40
2011,06,16,08,20,11.40
2011,06,16,08,21,11.40
2011,06,16,08,22,11.50
2011,06,16,08,23,11.50
2011,06,16,08,24,11.60
2011,06,16,08,25,11.70
2011,06,16,08,26,11.90
2011,06,16,08,27,12.10
2011,06,16,08,28,12.20
2011,06,16,08,29,12.40
2011,06,16,08,30,12.50
2011,06,16,08,31,12.60
2011,06,16,08,32,12.60
2011,06,16,08,33,12.60
2011,06,16,08,34,12.60
2011,06,16,08,35,12.60
2011,06,16,08,36,12.70
2011,06,16,08,37,12.80
2011,06,16,08,38,13.00
2011,06,16,08,39,13.10
2011,06,16,08,40,13.20
2011,06,16,08,41,13.30
2011,06,16,08,42,13.30
2011,06,16,08,43,13.40
2011,06,16,08,44,13.50
2011,06,16,08,45,13.50
2011,06,16,08,46,13.40
2011,06,16,08,47,13.50
2011,06,16,08,48,13.50
2011,06,16,08,49,13.60
2011,06,16,08,50,13.60
2011,06,16,08,51,13.60
2011,06,16,08,52,13.60
2011,06,16,08,53,13.70
2011,06,16,08,54,13.70
2011,06,16,08,55,13.70
2011,06,16,08,56,13.80
2011,06,16,08,57,13.80
2011,06,16,08,58,13.80
2011,06,16,08,59,13.80
2011,06,16,09,00,13.80
2011,06,16,09,01,13.80
2011,06,16,09,02,13.80
2011,06,16,09,03,13.80
2011,06,16,09,04,13.80
2011,06,16,09,05,13.70
2011,06,16,09,06,13.80
2011,06,16,09,07,13.80
2011,06,16,09,08,13.70
2011,06,16,09,09,13.70
2011,06,16,09,10,13.70
2011,06,16,09,11,13.70
2011,06,16,09,12,13.70
2011,06,16,09,13,13.70
2011,06,16,09,14,13.70
2011,06,16,09,15,13.70
2011,06,16,09,16,13.70
2011,06,16,09,17,13.80
2011,06,16,09,18,13.90
2011,06,16,09,19,13.90
2011,06,16,09,20,13.90
2011,06,16,09,21,13.90
2011,06,16,09,22,13.90
2011,06,16,09,23,13.90
2011,06,16,09,24,13.90
2011,06,16,09,25,14.00
2011,06,16,09,26,14.00
2011,06,16,09,27,14.00
2011,06,16,09,28,14.10
2011,06,16,09,29,14.20
2011,06,16,09,30,14.30
2011,06,16,09,31,14.40
2011,06,16,09,32,14.50
2011,06,16,09,33,14.60
2011,06,16,09,34,14.70
2011,06,16,09,35,14.80
2011,06,16,09,36,14.60
2011,06,16,09,37,14.50
2011,06,16,09,38,14.40
2011,06,16,09,39,14.30
2011,06,16,09,40,14.30
2011,06,16,09,41,14.30
2011,06,16,09,42,14.30
2011,06,16,09,43,14.30
2011,06,16,09,44,14.30
2011,06,16,09,45,14.40
2011,06,16,09,46,14.50
2011,06,16,09,47,14.60
2011,06,16,09,48,14.60
2011,06,16,09,49,14.60
2011,06,16,09,50,14.60
2011,06,16,09,51,14.60
2011,06,16,09,52,14.60
2011,06,16,09,53,14.60
2011,06,16,09,54,14.50
2011,06,16,09,55,14.40
2011,06,16,09,56,14.40
2011,06,16,09,57,14.40
2011,06,16,09,58,14.40
2011,06,16,09,59,14.50
2011,06,16,10,00,14.60
2011,06,16,10,01,14.70
2011,06,16,10,02,14.80
2011,06,16,10,03,14.80
2011,06,16,10,04,14.70
2011,06,16,10,05,14.70
2011,06,16,10,06,14.80
2011,06,16,10,07,14.90
2011,06,16,10,08,15.00
2011,06,16,10,09,15.00
2011,06,16,10,10,15.00
2011,06,16,10,11,14.80
2011,06,16,10,12,14.80
2011,06,16,10,13,14.70
2011,06,16,10,14,14.60
2011,06,16,10,15,14.60
2011,06,16,10,16,14.60
2011,06,16,10,17,14.70
2011,06,16,10,18,14.70
2011,06,16,10,19,14.60
2011,06,16,10,20,14.70
2011,06,16,10,21,14.70
2011,06,16,10,22,14.70
2011,06,16,10,23,14.80
2011,06,16,10,24,15.00
2011,06,16,10,25,15.00
2011,06,16,10,26,15.00
2011,06,16,10,27,15.00
2011,06,16,10,28,15.00
2011,06,16,10,29,15.00
2011,06,16,10,30,15.00
2011,06,16,10,31,15.00
2011,06,16,10,32,14.90
2011,06,16,10,33,14.70
2011,06,16,10,34,14.60
2011,06,16,10,35,14.50
2011,06,16,10,36,14.60
2011,06,16,10,37,14.60
2011,06,16,10,38,14.70
2011,06,16,10,39,15.00
2011,06,16,10,40,15.00
2011,06,16,10,41,15.00
2011,06,16,10,42,15.20
2011,06,16,10,43,15.40
2011,06,16,10,44,15.40
2011,06,16,10,45,15.40
2011,06,16,10,46,15.40
2011,06,16,10,47,15.30
2011,06,16,10,48,15.30
2011,06,16,10,49,15.20
2011,06,16,10,50,15.10
2011,06,16,10,51,15.00
2011,06,16,10,52,15.00
2011,06,16,10,53,15.00
2011,06,16,10,54,15.00
2011,06,16,10,55,15.00
2011,06,16,10,56,15.00
2011,06,16,10,57,15.00
2011,06,16,10,58,15.00
2011,06,16,10,59,15.10
2011,06,16,11,00,15.10
2011,06,16,11,01,15.20
2011,06,16,11,02,15.30
2011,06,16,11,03,15.40
2011,06,16,11,04,15.50
2011,06,16,11,05,15.60
2011,06,16,11,06,15.50
2011,06,16,11,07,15.40
2011,06,16,11,08,15.30
2011,06,16,11,09,15.30
2011,06,16,11,10,15.30
2011,06,16,11,11,15.40
2011,06,16,11,12,15.60
2011,06,16,11,13,15.70
2011,06,16,11,14,15.70
2011,06,16,11,15,15.70
2011,06,16,11,16,15.60
2011,06,16,11,17,15.60
2011,06,16,11,18,15.40
2011,06,16,11,19,15.30
2011,06,16,11,20,15.20
2011,06,16,11,21,15.30
2011,06,16,11,22,15.40
2011,06,16,11,23,15.40
2011,06,16,11,24,15.50
2011,06,16,11,25,15.50
2011,06,16,11,26,15.60
2011,06,16,11,27,15.70
2011,06,16,11,28,15.70
2011,06,16,11,29,15.70
2011,06,16,11,30,15.70
2011,06,16,11,31,15.80
2011,06,16,11,32,15.80
2011,06,16,11,33,15.70
2011,06,16,11,34,15.70
2011,06,16,11,35,15.70
2011,06,16,11,36,15.70
2011,06,16,11,37,15.70
2011,06,16,11,38,15.80
2011,06,16,11,39,15.90
2011,06,16,11,40,16.00
2011,06,16,11,41,16.10
2011,06,16,11,42,16.10
2011,06,16,11,43,16.10
2011,06,16,11,44,16.10
2011,06,16,11,45,16.20
2011,06,16,11,46,16.10
2011,06,16,11,47,15.90
2011,06,16,11,48,15.70
2011,06,16,11,49,15.50
2011,06,16,11,50,15.50
2011,06,16,11,51,15.60
2011,06,16,11,52,15.50
2011,06,16,11,53,15.50
2011,06,16,11,54,15.40
2011,06,16,11,55,15.40
2011,06,16,11,56,15.40
2011,06,16,11,57,15.40
2011,06,16,11,58,15.40
2011,06,16,11,59,15.50
2011,06,16,12,00,15.50
2011,06,16,12,01,15.40
2011,06,16,12,02,15.50
2011,06,16,12,03,15.50
2011,06,16,12,04,15.60
2011,06,16,12,05,15.70
2011,06,16,12,06,15.70
2011,06,16,12,07,15.80
2011,06,16,12,08,15.80
2011,06,16,12,09,15.80
2011,06,16,12,10,15.70
2011,06,16,12,11,15.70
2011,06,16,12,12,15.60
2011,06,16,12,13,15.70
2011,06,16,12,14,15.70
2011,06,16,12,15,15.80
2011,06,16,12,16,15.90
2011,06,16,12,17,15.90
2011,06,16,12,18,15.80
2011,06,16,12,19,15.80
2011,06,16,12,20,15.70
2011,06,16,12,21,15.60
2011,06,16,12,22,15.60
2011,06,16,12,23,15.60
2011,06,16,12,24,15.60
2011,06,16,12,25,15.60
2011,06,16,12,26,15.60
2011,06,16,12,27,15.70
2011,06,16,12,28,15.70
2011,06,16,12,29,15.70
2011,06,16,12,30,15.80
2011,06,16,12,31,15.80
2011,06,16,12,32,15.90
2011,06,16,12,33,16.00
2011,06,16,12,34,16.00
2011,06,16,12,35,15.90
2011,06,16,12,36,15.80
2011,06,16,12,37,15.70
2011,06,16,12,38,15.70
2011,06,16,12,39,15.60
2011,06,16,12,40,15.50
2011,06,16,12,41,15.60
2011,06,16,12,42,15.60
2011,06,16,12,43,15.70
2011,06,16,12,44,15.80
2011,06,16,12,45,15.90
2011,06,16,12,46,16.00
2011,06,16,12,47,16.00
2011,06,16,12,48,16.10
2011,06,16,12,49,16.10
2011,06,16,12,50,16.00
2011,06,16,12,51,15.90
2011,06,16,12,52,15.90
2011,06,16,12,53,15.90
2011,06,16,12,54,15.90
2011,06,16,12,55,16.00
2011,06,16,12,56,16.10
2011,06,16,12,57,16.20
2011,06,16,12,58,16.30
2011,06,16,12,59,16.40
2011,06,16,13,00,16.50
2011,06,16,13,01,16.60
2011,06,16,13,02,16.60
2011,06,16,13,03,16.60
2011,06,16,13,04,16.50
2011,06,16,13,05,16.40
2011,06,16,13,06,16.40
2011,06,16,13,07,16.40
2011,06,16,13,08,16.30
2011,06,16,13,09,16.30
2011,06,16,13,10,16.30
2011,06,16,13,11,16.30
2011,06,16,13,12,16.30
2011,06,16,13,13,16.20
2011,06,16,13,14,16.20
2011,06,16,13,15,16.30
2011,06,16,13,16,16.30
2011,06,16,13,17,16.40
2011,06,16,13,18,16.50
2011,06,16,13,19,16.50
2011,06,16,13,20,16.60
2011,06,16,13,21,16.60
2011,06,16,13,22,16.50
2011,06,16,13,23,16.40
2011,06,16,13,24,16.30
2011,06,16,13,25,16.30
2011,06,16,13,26,16.30
2011,06,16,13,27,16.30
2011,06,16,13,28,16.30
2011,06,16,13,29,16.40
2011,06,16,13,30,16.40
2011,06,16,13,31,16.40
2011,06,16,13,32,16.40
2011,06,16,13,33,16.50
2011,06,16,13,34,16.40
2011,06,16,13,35,16.40
2011,06,16,13,36,16.40
2011,06,16,13,37,16.40
2011,06,16,13,38,16.50
2011,06,16,13,39,16.50
2011,06,16,13,40,16.60
2011,06,16,13,41,16.60
2011,06,16,13,42,16.40
2011,06,16,13,43,16.40
2011,06,16,13,44,16.40
2011,06,16,13,45,16.40
2011,06,16,13,46,16.60
2011,06,16,13,47,16.70
2011,06,16,13,48,16.80
2011,06,16,13,49,17.00
2011,06,16,13,50,17.10
2011,06,16,13,51,17.10
2011,06,16,13,52,17.10
2011,06,16,13,53,17.10
2011,06,16,13,54,17.00
2011,06,16,13,55,16.90
2011,06,16,13,56,16.80
2011,06,16,13,57,16.80
2011,06,16,13,58,16.80
2011,06,16,13,59,16.90
2011,06,16,14,00,16.90
2011,06,16,14,01,16.90
2011,06,16,14,02,16.80
2011,06,16,14,03,16.70
2011,06,16,14,04,16.60
2011,06,16,14,05,16.50
2011,06,16,14,06,16.50
2011,06,16,14,07,16.50
2011,06,16,14,08,16.60
2011,06,16,14,09,16.70
2011,06,16,14,10,16.70
2011,06,16,14,11,16.70
2011,06,16,14,12,16.60
2011,06,16,14,13,16.50
2011,06,16,14,14,16.40
2011,06,16,14,15,16.40
2011,06,16,14,16,16.40
2011,06,16,14,17,16.40
2011,06,16,14,18,16.40
2011,06,16,14,19,16.30
2011,06,16,14,20,16.40
2011,06,16,14,21,16.60
2011,06,16,14,22,16.60
2011,06,16,14,23,16.70
2011,06,16,14,24,16.70
2011,06,16,14,25,16.60
2011,06,16,14,26,16.50
2011,06,16,14,27,16.50
2011,06,16,14,28,16.50
2011,06,16,14,29,16.40
2011,06,16,14,30,16.30
2011,06,16,14,31,16.20
2011,06,16,14,32,16.10
2011,06,16,14,33,16.20
2011,06,16,14,34,16.30
2011,06,16,14,35,16.40
2011,06,16,14,36,16.50
2011,06,16,14,37,16.60
2011,06,16,14,38,16.60
2011,06,16,14,39,16.60
2011,06,16,14,40,16.50
2011,06,16,14,41,16.40
2011,06,16,14,42,16.40
2011,06,16,14,43,16.50
2011,06,16,14,44,16.60
2011,06,16,14,45,16.70
2011,06,16,14,46,16.80
2011,06,16,14,47,16.70
2011,06,16,14,48,16.70
2011,06,16,14,49,16.60
2011,06,16,14,50,16.60
2011,06,16,14,51,16.60
2011,06,16,14,52,16.70
2011,06,16,14,53,16.80
2011,06,16,14,54,16.80
2011,06,16,14,55,16.80
2011,06,16,14,56,16.70
2011,06,16,14,57,16.80
2011,06,16,14,58,16.80
2011,06,16,14,59,17.00
2011,06,16,15,00,17.10
2011,06,16,15,01,17.20
2011,06,16,15,02,17.30
2011,06,16,15,03,17.40
2011,06,16,15,04,17.50
2011,06,16,15,05,17.60
2011,06,16,15,06,17.70
2011,06,16,15,07,17.70
2011,06,16,15,08,17.70
2011,06,16,15,09,17.60
2011,06,16,15,10,17.60
2011,06,16,15,11,17.50
2011,06,16,15,12,17.40
2011,06,16,15,13,17.40
2011,06,16,15,14,17.40
2011,06,16,15,15,17.40
2011,06,16,15,16,17.40
2011,06,16,15,17,17.40
2011,06,16,15,18,17.40
2011,06,16,15,19,17.50
2011,06,16,15,20,17.50
2011,06,16,15,21,17.50
2011,06,16,15,22,17.60
2011,06,16,15,23,17.60
2011,06,16,15,24,17.60
2011,06,16,15,25,17.50
2011,06,16,15,26,17.40
2011,06,16,15,27,17.50
2011,06,16,15,28,17.60
2011,06,16,15,29,17.70
2011,06,16,15,30,17.80
2011,06,16,15,31,17.90
2011,06,16,15,32,18.10
2011,06,16,15,33,18.20
2011,06,16,15,34,18.20
2011,06,16,15,35,18.20
2011,06,16,15,36,18.20
2011,06,16,15,37,18.20
2011,06,16,15,38,18.30
2011,06,16,15,39,18.20
2011,06,16,15,40,18.20
2011,06,16,15,41,18.20
2011,06,16,15,42,18.20
2011,06,16,15,43,18.20
2011,06,16,15,44,18.30
2011,06,16,15,45,18.30
2011,06,16,15,46,18.30
2011,06,16,15,47,18.30
2011,06,16,15,48,18.20
2011,06,16,15,49,18.30
2011,06,16,15,50,18.30
2011,06,16,15,51,18.40
2011,06,16,15,52,18.60
2011,06,16,15,53,18.60
2011,06,16,15,54,18.60
2011,06,16,15,55,18.60
2011,06,16,15,56,18.50
2011,06,16,15,57,18.50
2011,06,16,15,58,18.60
2011,06,16,15,59,18.60
2011,06,16,16,00,18.60
2011,06,16,16,01,18.60
2011,06,16,16,02,18.60
2011,06,16,16,03,18.60
2011,06,16,16,04,18.60
2011,06,16,16,05,18.70
2011,06,16,16,06,18.80
2011,06,16,16,07,18.80
2011,06,16,16,08,18.80
2011,06,16,16,09,18.80
2011,06,16,16,10,18.70
2011,06,16,16,11,18.80
2011,06,16,16,12,18.80
2011,06,16,16,13,18.80
2011,06,16,16,14,18.90
2011,06,16,16,15,18.90
2011,06,16,16,16,18.90
2011,06,16,16,17,18.90
2011,06,16,16,18,18.90
2011,06,16,16,19,18.90
2011,06,16,16,20,18.90
2011,06,16,16,21,18.90
2011,06,16,16,22,18.90
2011,06,16,16,23,18.90
2011,06,16,16,24,18.80
2011,06,16,16,25,18.80
2011,06,16,16,26,18.70
2011,06,16,16,27,18.70
2011,06,16,16,28,18.70
2011,06,16,16,29,18.70
2011,06,16,16,30,18.80
2011,06,16,16,31,18.80
2011,06,16,16,32,18.90
2011,06,16,16,33,19.00
2011,06,16,16,34,19.00
2011,06,16,16,35,19.00
2011,06,16,16,36,19.10
2011,06,16,16,37,19.10
2011,06,16,16,38,19.20
2011,06,16,16,39,19.10
2011,06,16,16,40,19.10
2011,06,16,16,41,19.10
2011,06,16,16,42,19.00
2011,06,16,16,43,18.90
2011,06,16,16,44,18.80
2011,06,16,16,45,18.70
2011,06,16,16,46,18.70
2011,06,16,16,47,18.80
2011,06,16,16,48,18.80
2011,06,16,16,49,18.80
2011,06,16,16,50,18.80
2011,06,16,16,51,18.70
2011,06,16,16,52,18.50
2011,06,16,16,53,18.50
2011,06,16,16,54,18.50
2011,06,16,16,55,18.40
2011,06,16,16,56,18.30
2011,06,16,16,57,18.30
2011,06,16,16,58,18.30
2011,06,16,16,59,18.30
2011,06,16,17,00,18.30
2011,06,16,17,01,18.30
2011,06,16,17,02,18.30
2011,06,16,17,03,18.30
2011,06,16,17,04,18.30
2011,06,16,17,05,18.30
2011,06,16,17,06,18.20
2011,06,16,17,07,18.30
2011,06,16,17,08,18.30
2011,06,16,17,09,18.30
2011,06,16,17,10,18.20
2011,06,16,17,11,18.10
2011,06,16,17,12,18.00
2011,06,16,17,13,18.00
2011,06,16,17,14,17.90
2011,06,16,17,15,18.00
2011,06,16,17,16,18.10
2011,06,16,17,17,18.10
2011,06,16,17,18,18.10
2011,06,16,17,19,18.10
2011,06,16,17,20,18.10
2011,06,16,17,21,18.20
2011,06,16,17,22,18.30
2011,06,16,17,23,18.30
2011,06,16,17,24,18.40
2011,06,16,17,25,18.40
2011,06,16,17,26,18.40
2011,06,16,17,27,18.40
2011,06,16,17,28,18.40
2011,06,16,17,29,18.50
2011,06,16,17,30,18.50
2011,06,16,17,31,18.50
2011,06,16,17,32,18.60